Location: Newark
(35.2672°N, 80.7344°W)
Time: 01:09:54
(UTC+00:00)

Transit 2A Rocket - Pass Details

Date: 28 January 2020
Orbit: 591 x 912 km, 66.7° (Epoch: 21 February)

Event Time Altitude Azimuth Distance (km) Brightness Sun altitude
Rises 10:20:34 0° 235° (SW) 2,844 - -25.5°
Reaches altitude 10° 10:23:09 10° 249° (WSW) 1,926 - -25.0°
Maximum altitude 10:26:41 25° 305° (NW) 1,222 - -24.3°
Drops below altitude 10° 10:30:14 10° 1° (N) 1,934 - -23.6°
Exits shadow 10:30:25 - 2° (N) 1,997 7.1 -23.5°
Sets 10:32:51 0° 15° (NNE) 2,860 8.1 -23.0°
